Weather History for KAUO - October, 2013

Change the Weather History Date:

Saturday, October 19, 2013

  Actual Average Record
Temperature  
Mean Temperature 58 °F -  
Max Temperature 61 °F - 87 °F (1984)
Min Temperature 54 °F - 33 °F (1967)
Degree Days  
Heating Degree Days 7    
Month to date heating degree days 8  
Since 1 July heating degree days 8  
Cooling Degree Days 0    
Month to date cooling degree days 64  
Year to date cooling degree days 1626  
Growing Degree Days 6 (Base 50)    
Moisture  
Dew Point 53 °F    
Average Humidity 84    
Maximum Humidity 94    
Minimum Humidity 72    
Precipitation  
Precipitation 0.08 in - 2.52 in (2004)
Month to date precipitation 0.50  
Year to date precipitation 39.46  
Sea Level Pressure  
Sea Level Pressure 29.99 in    
Wind  
Wind Speed 3 mph (NNW)    
Max Wind Speed 9 mph    
Max Gust Speed -    
Visibility 10 miles    
Events      
T = Trace of Precipitation, MM = Missing Value Source: NWS Daily Summary

Daily Weather History Graph

Daily Weather History Graph

Search for Another Location

Airport or City:

Trip Planner

Search our weather history database for the weather conditions in past years. The results will help you decide how hot, cold, wet, or windy it might be!

Date:

Astronomy

Oct. 19, 2013 Rise Set
Actual Time 6:48 AM CDT 6:03 PM CDT
Civil Twilight 6:23 AM CDT 6:28 PM CDT
Nautical Twilight 5:55 AM CDT 6:57 PM CDT
Astronomical Twilight 5:26 AM CDT 7:25 PM CDT
Moon 6:35 PM CDT (10/19) 7:22 AM CDT (10/19)
Length of Visible Light 12h 04m
Length of Day
11h 15m
Waxing Gibbous, 99% of the Moon is Illuminated
Oct 19
Waxing Gibbous
Oct 26
Last Quarter
Nov 3
New
Nov 9
First Quarter
Nov 17
Full

Hourly Weather History & Observations

Time (CDT) Temp. Dew Point Humidity Pressure Visibility Wind Dir Wind Speed Gust Speed Precip Events Conditions
12:15 AM 60.8 °F 51.8 °F 72% 30.00 in 10.0 mi Calm Calm - N/A   Partly Cloudy
12:35 AM 59.0 °F 51.8 °F 77% 29.99 in 10.0 mi North 4.6 mph - N/A   Scattered Clouds
12:55 AM 59.0 °F 51.8 °F 77% 29.99 in 10.0 mi NNE 3.5 mph - N/A   Partly Cloudy
1:15 AM 59.0 °F 51.8 °F 77% 29.99 in 10.0 mi North 4.6 mph - N/A   Clear
1:35 AM 57.2 °F 53.6 °F 88% 29.98 in 10.0 mi NNE 5.8 mph - N/A   Partly Cloudy
1:55 AM 57.2 °F 51.8 °F 82% 29.99 in 10.0 mi NNE 3.5 mph - N/A   Clear
2:15 AM 57.2 °F 51.8 °F 82% 29.97 in 10.0 mi NE 5.8 mph - N/A   Partly Cloudy
2:35 AM 57.2 °F 51.8 °F 82% 29.97 in 10.0 mi NNE 3.5 mph - N/A   Mostly Cloudy
2:55 AM 57.2 °F 51.8 °F 82% 29.97 in 10.0 mi Calm Calm - N/A   Mostly Cloudy
3:15 AM 59.0 °F 51.8 °F 77% 29.98 in 10.0 mi NNE 4.6 mph - N/A   Mostly Cloudy
3:35 AM 57.2 °F 51.8 °F 82% 29.98 in 10.0 mi North 5.8 mph - N/A   Mostly Cloudy
3:55 AM 57.2 °F 51.8 °F 82% 29.97 in 10.0 mi North 5.8 mph - N/A   Mostly Cloudy
4:15 AM 57.2 °F 51.8 °F 82% 29.97 in 10.0 mi NNE 5.8 mph - N/A   Scattered Clouds
4:35 AM 57.2 °F 51.8 °F 82% 29.97 in 10.0 mi North 6.9 mph - N/A   Partly Cloudy
4:55 AM 57.2 °F 51.8 °F 82% 29.97 in 10.0 mi NNE 5.8 mph - N/A   Partly Cloudy
5:15 AM 57.2 °F 51.8 °F 82% 29.97 in 10.0 mi North 4.6 mph - N/A   Mostly Cloudy
5:35 AM 57.2 °F 51.8 °F 82% 29.98 in 10.0 mi North 4.6 mph - 0.01 in   Scattered Clouds
5:55 AM 55.4 °F 53.6 °F 94% 29.98 in 10.0 mi North 6.9 mph - 0.01 in   Mostly Cloudy
6:15 AM 55.4 °F 53.6 °F 94% 29.98 in 10.0 mi North 4.6 mph - 0.01 in   Mostly Cloudy
6:35 AM 55.4 °F 53.6 °F 94% 29.99 in 10.0 mi North 4.6 mph - 0.02 in   Clear
6:55 AM 55.4 °F 53.6 °F 94% 29.99 in 10.0 mi ENE 3.5 mph - 0.02 in   Clear
7:15 AM 55.4 °F 53.6 °F 94% 29.99 in 10.0 mi NE 3.5 mph - N/A   Scattered Clouds
7:35 AM 55.4 °F 53.6 °F 94% 29.98 in 10.0 mi Calm Calm - 0.01 in   Scattered Clouds
7:55 AM 55.4 °F 53.6 °F 94% 29.98 in 10.0 mi Calm Calm - 0.02 in   Partly Cloudy
8:15 AM 55.4 °F 53.6 °F 94% 29.99 in 10.0 mi Calm Calm - N/A   Mostly Cloudy
8:35 AM 57.2 °F 53.6 °F 88% 30.00 in 10.0 mi Calm Calm - N/A   Partly Cloudy
8:55 AM 59.0 °F 55.4 °F 88% 30.01 in 10.0 mi NNW 3.5 mph - N/A   Mostly Cloudy
9:15 AM 60.8 °F 51.8 °F 72% 30.00 in 10.0 mi Calm Calm - N/A   Mostly Cloudy
9:35 AM 60.8 °F 51.8 °F 72% 30.01 in 10.0 mi WSW 3.5 mph - N/A   Overcast
9:55 AM 60.8 °F 53.6 °F 77% 30.02 in 10.0 mi West 3.5 mph - N/A   Overcast
10:15 AM 60.8 °F 51.8 °F 72% 30.02 in 10.0 mi WNW 4.6 mph - N/A   Overcast
10:35 AM 60.8 °F 51.8 °F 72% 30.03 in 10.0 mi West 6.9 mph - N/A   Overcast
10:55 AM 60.8 °F 51.8 °F 72% 30.02 in 10.0 mi West 4.6 mph - N/A   Overcast
11:15 AM 60.8 °F 51.8 °F 72% 30.02 in 10.0 mi WNW 6.9 mph - N/A   Overcast
11:35 AM 60.8 °F 53.6 °F 77% 30.01 in 10.0 mi SW 3.5 mph - N/A   Overcast
11:55 AM 59.0 °F 53.6 °F 82% 30.01 in 10.0 mi SW 6.9 mph - N/A   Mostly Cloudy
12:15 PM 59.0 °F 55.4 °F 88% 30.01 in 10.0 mi West 4.6 mph - N/A   Mostly Cloudy
12:35 PM 59.0 °F 55.4 °F 88% 30.01 in 10.0 mi SW 4.6 mph - 0.01 in   Scattered Clouds
12:55 PM 59.0 °F 55.4 °F 88% 29.98 in 10.0 mi SW 4.6 mph - 0.01 in   Scattered Clouds
1:15 PM 59.0 °F 55.4 °F 88% 29.98 in 10.0 mi SW 5.8 mph - 0.02 in   Overcast
1:35 PM 59.0 °F 55.4 °F 88% 29.98 in 10.0 mi WSW 4.6 mph - 0.02 in   Overcast
1:55 PM 59.0 °F 55.4 °F 88% 29.97 in 10.0 mi West 3.5 mph - 0.02 in   Overcast
2:15 PM 60.8 °F 55.4 °F 82% 29.98 in 10.0 mi West 8.1 mph - N/A   Overcast
2:35 PM 60.8 °F 55.4 °F 82% 29.97 in 10.0 mi WNW 6.9 mph - N/A   Mostly Cloudy
2:55 PM 60.8 °F 55.4 °F 82% 29.97 in 10.0 mi WNW 9.2 mph - N/A   Mostly Cloudy
3:15 PM 60.8 °F 55.4 °F 82% 29.97 in 10.0 mi WNW 4.6 mph - N/A   Scattered Clouds
3:35 PM 60.8 °F 55.4 °F 82% 29.97 in 10.0 mi NNW 5.8 mph - N/A   Clear
3:55 PM 60.8 °F 55.4 °F 82% 29.97 in 10.0 mi WNW 4.6 mph - N/A   Partly Cloudy
4:15 PM 60.8 °F 53.6 °F 77% 29.97 in 10.0 mi NW 6.9 mph - N/A   Scattered Clouds
4:35 PM 60.8 °F 53.6 °F 77% 29.98 in 10.0 mi NW 6.9 mph - N/A   Mostly Cloudy
4:55 PM 60.8 °F 53.6 °F 77% 29.98 in 10.0 mi Calm Calm - N/A   Overcast
5:15 PM 60.8 °F 53.6 °F 77% 29.98 in 10.0 mi NNW 3.5 mph - N/A   Overcast
5:35 PM 60.8 °F 53.6 °F 77% 29.98 in 10.0 mi NNW 4.6 mph - N/A   Overcast
5:55 PM 60.8 °F 53.6 °F 77% 29.99 in 10.0 mi NNW 4.6 mph - N/A   Overcast
6:15 PM 60.8 °F 53.6 °F 77% 29.99 in 10.0 mi NNW 4.6 mph - N/A   Overcast
6:35 PM 59.0 °F 53.6 °F 82% 29.98 in 10.0 mi Calm Calm - N/A   Mostly Cloudy
6:55 PM 57.2 °F 53.6 °F 88% 29.98 in 10.0 mi Calm Calm - N/A   Mostly Cloudy
7:15 PM 57.2 °F 53.6 °F 88% 29.98 in 10.0 mi Calm Calm - N/A   Partly Cloudy
7:35 PM 57.2 °F 53.6 °F 88% 29.99 in 10.0 mi Calm Calm - N/A   Clear
7:55 PM 57.2 °F 53.6 °F 88% 29.98 in 10.0 mi Calm Calm - N/A   Clear
8:15 PM 57.2 °F 53.6 °F 88% 29.99 in 10.0 mi Calm Calm - N/A   Clear
8:35 PM 55.4 °F 53.6 °F 94% 29.99 in 10.0 mi Calm Calm - N/A   Clear
8:55 PM 55.4 °F 53.6 °F 94% 29.99 in 10.0 mi Calm Calm - N/A   Clear
9:15 PM 55.4 °F 53.6 °F 94% 30.00 in 10.0 mi Calm Calm - N/A   Clear
9:35 PM 55.4 °F 53.6 °F 94% 30.00 in 10.0 mi Calm Calm - N/A   Clear
9:55 PM 55.4 °F 53.6 °F 94% 30.00 in 10.0 mi Calm Calm - N/A   Clear
10:15 PM 55.4 °F 53.6 °F 94% 30.00 in 9.0 mi Calm Calm - N/A   Clear
10:35 PM 55.4 °F 53.6 °F 94% 30.01 in 10.0 mi Calm Calm - N/A   Clear
10:55 PM 55.4 °F 53.6 °F 94% 30.01 in 10.0 mi Calm Calm - N/A   Clear
11:15 PM 53.6 °F 51.8 °F 94% 30.01 in 9.0 mi Calm Calm - N/A   Clear
11:35 PM 53.6 °F 51.8 °F 94% 30.01 in 10.0 mi Calm Calm - N/A   Clear
11:55 PM 53.6 °F 51.8 °F 94% 30.01 in 10.0 mi NW 4.6 mph - N/A   Clear